User: anonymous   Login
Location: Unspecified
(0.0000°N, 0.0000°E)
Time: 02:07:20
(UTC+00:00)
Language:

STARLINK-3265 - Orbit

View from above orbital plane
View from above orbital plane
View from above satellite
View from above satellite

Ground track
Ground track

The orbit is defined by the following mean orbital elements,

1 50180U          26145.58264654 +.00000000 +00000-0 +30127-4 0 00002
2 50180  53.2119 263.9416 0001142  87.1406 272.9717 15.08837707    03
Epoch (UTC): 25 May 2026 13:59:00
Eccentricity: 0.0001142
inclination: 53.2119°
perigee height: 539 km
apogee height: 541 km
right ascension of ascending node: 263.9416°
argument of perigee: 87.1406°
revolutions per day: 15.08837707
mean anomaly at epoch: 272.9717°

The dashed part of the orbit path shows where the satellite is in the earth's shadow,  

DLR